Epoch,demod_status_bits,ebno,lock_status,signal_level,viterbi_ber
1665254432,C;S;V;F,12.5,0x00c000,-39.0,
1665254433,,12.9,0x00c000,-38.9,3.03e-7
1665254434,C;S;V;F,12.7,0x00c000,-38.9,6.06e-7
1665254435,C;S;V;F,13.3,0x00c000,-38.7,4.54e-7
1665254436,C;S;V;F,12.9,0x00c000,-38.6,3.03e-7
1665254437,C;S;V;F,,0x00c000,-39.1,1.51e-7
1665254438,C;S;V;F,12.5,0x00c000,,3.03e-7
1665254439,C;S;V;F,12.8,0x00c000,-38.9,6.06e-7
1665254440,C;S;V;F,13.3,0x00c000,-38.5,3.03e-7
1665254441,C;S;V;F,13.4,0x00c000,-38.7,0.00e-0
1665254442,C;S;V;F,13.3,0x00c000,-38.7,0.00e-0
1665254443,C;S;V;F,13.6,0x00c000,-38.5,
1665254444,,13.9,0x00c000,-38.1,0.00e-0
1665254445,C;S;V;F,13.3,0x00c000,-38.7,0.00e-0
1665254446,C;S;V;F,13.5,0x00c000,-38.2,0.00e-0
1665254447,C;S;V;F,14.0,0x00c000,-37.9,0.00e-0
1665254448,C;S;V;F,,0x00c000,-38.8,0.00e-0
1665254449,C;S;V;F,13.1,0x00c000,,0.00e-0
1665254450,C;S;V;F,13.5,0x00c000,-38.1,1.51e-7
1665254451,C;S;V;F,13.5,0x00c000,-38.2,0.00e-0
1665254452,,13.6,0x00c000,-38.4,
1665254453,C;S;V;F,,0x00c000,-38.0,0.00e-0
1665254454,C;S;V;F,13.8,0x00c000,,0.00e-0
1665254455,C;S;V;F,13.8,0x00c000,-38.1,0.00e-0
1665254456,C;S;V;F,13.9,0x00c000,-38.2,0.00e-0
1665254457,C;S;V;F,13.5,0x00c000,-38.4,0.00e-0
1665254458,C;S;V;F,13.5,0x00c000,-38.0,0.00e-0
1665254459,C;S;V;F,13.9,0x00c000,-38.0,0.00e-0
1665254460,C;S;V;F,13.6,0x00c000,-38.0,0.00e-0
1665254461,C;S;V;F,13.8,0x00c000,-38.1,0.00e-0
1665254462,C;S;V;F,13.7,0x00c000,-38.3,
1665254463,,14.0,0x00c000,-38.0,0.00e-0
1665254464,C;S;V;F,14.1,0x00c000,-37.9,0.00e-0
1665254465,C;S;V;F,,0x00c000,-37.8,0.00e-0
1665254466,C;S;V;F,14.1,0x00c000,-37.9,0.00e-0
1665254467,C;S;V;F,14.3,0x00c000,,0.00e-0
1665254468,C;S;V;F,14.1,0x00c000,-37.9,0.00e-0
1665254469,C;S;V;F,14.1,0x00c000,-37.8,0.00e-0
1665254470,C;S;V;F,14.1,0x00c000,-37.9,0.00e-0
1665254471,C;S;V;F,14.1,0x00c000,-37.6,0.00e-0
1665254472,C;S;V;F,14.2,0x00c000,-37.7,
1665254473,,14.4,0x00c000,-37.8,0.00e-0
1665254474,C;S;V;F,14.4,0x00c000,-37.7,0.00e-0
1665254475,C;S;V;F,,0x00c000,-37.5,0.00e-0
1665254476,C;S;V;F,14.6,0x00c000,-37.6,0.00e-0
1665254477,C;S;V;F,14.6,0x00c000,,0.00e-0
1665254478,C;S;V;F,14.2,0x00c000,-37.7,0.00e-0
1665254479,C;S;V;F,14.5,0x00c000,-37.6,0.00e-0
1665254480,C;S;V;F,14.4,0x00c000,-37.5,0.00e-0
1665254481,C;S;V;F,14.7,0x00c000,-37.4,0.00e-0
1665254482,C;S;V;F,14.6,0x00c000,-37.5,0.00e-0
1665254483,C;S;V;F,14.3,0x00c000,-37.4,0.00e-0
1665254484,C;S;V;F,14.6,0x00c000,-37.4,0.00e-0
1665254485,C;S;V;F,14.7,0x00c000,-37.6,0.00e-0
1665254486,C;S;V;F,14.6,0x00c000,-37.4,
1665254487,,14.9,0x00c000,-37.4,0.00e-0
1665254488,C;S;V;F,14.9,0x00c000,-37.2,0.00e-0
1665254489,C;S;V;F,,0x00c000,-37.3,0.00e-0
1665254490,C;S;V;F,14.7,0x00c000,,0.00e-0
1665254491,C;S;V;F,14.8,0x00c000,-37.3,0.00e-0
1665254492,C;S;V;F,14.9,0x00c000,-37.2,0.00e-0
1665254494,,15.3,0x00c000,-37.0,
1665254495,C;S;V;F,,0x00c000,,0.00e-0
1665254496,C;S;V;F,15.2,0x00c000,-37.2,0.00e-0
1665254497,C;S;V;F,15.4,0x00c000,-36.8,0.00e-0
1665254498,C;S;V;F,15.0,0x00c000,-37.2,0.00e-0
1665254499,C;S;V;F,15.1,0x00c000,-37.0,0.00e-0
1665254500,C;S;V;F,15.4,0x00c000,-36.9,0.00e-0
1665254501,C;S;V;F,15.4,0x00c000,-36.7,0.00e-0
1665254502,C;S;V;F,15.2,0x00c000,-36.4,
1665254503,,15.6,0x00c000,-36.7,0.00e-0
1665254504,C;S;V;F,15.3,0x00c000,-36.8,0.00e-0
1665254505,C;S;V;F,15.5,0x00c000,-36.8,0.00e-0
1665254506,C;S;V;F,,0x00c000,-36.8,0.00e-0
1665254507,C;S;V;F,15.0,0x00c000,,0.00e-0
1665254508,C;S;V;F,15.6,0x00c000,-36.7,0.00e-0
1665254509,C;S;V;F,15.6,0x00c000,-36.4,0.00e-0
1665254510,C;S;V;F,15.5,0x00c000,-36.5,0.00e-0
1665254511,C;S;V;F,15.6,0x00c000,-36.6,0.00e-0
1665254512,C;S;V;F,15.6,0x00c000,-36.4,0.00e-0
1665254513,C;S;V;F,15.8,0x00c000,-36.3,0.00e-0
1665254514,,15.8,0x00c000,-36.4,
1665254515,C;S;V;F,15.5,0x00c000,-36.3,0.00e-0
1665254516,C;S;V;F,15.8,0x00c000,-36.4,0.00e-0
1665254517,C;S;V;F,15.8,0x00c000,-36.3,0.00e-0
1665254518,C;S;V;F,,0x00c000,-36.3,0.00e-0
1665254519,C;S;V;F,15.8,0x00c000,,0.00e-0
1665254520,C;S;V;F,15.9,0x00c000,-36.3,0.00e-0
1665254521,C;S;V;F,15.6,0x00c000,-36.3,0.00e-0
1665254522,C;S;V;F,15.6,0x00c000,-36.4,0.00e-0
1665254523,C;S;V;F,15.8,0x00c000,-36.3,0.00e-0
1665254524,C;S;V;F,15.9,0x00c000,-36.3,0.00e-0
1665254525,C;S;V;F,16.0,0x00c000,-36.0,
1665254526,,16.0,0x00c000,-36.1,0.00e-0
1665254527,C;S;V;F,16.0,0x00c000,-36.3,0.00e-0
1665254528,C;S;V;F,,0x00c000,-36.0,0.00e-0
1665254529,C;S;V;F,15.9,0x00c000,-35.9,0.00e-0
1665254530,C;S;V;F,16.2,0x00c000,,0.00e-0
1665254531,C;S;V;F,16.0,0x00c000,-36.2,0.00e-0
1665254532,C;S;V;F,16.1,0x00c000,-36.0,0.00e-0
1665254533,C;S;V;F,16.1,0x00c000,-35.9,0.00e-0
1665254534,C;S;V;F,16.2,0x00c000,-35.8,
1665254535,,16.5,0x00c000,-35.7,0.00e-0
1665254536,C;S;V;F,,0x00c000,-35.6,0.00e-0
1665254537,C;S;V;F,16.4,0x00c000,,0.00e-0
1665254538,C;S;V;F,16.3,0x00c000,-35.9,0.00e-0
1665254539,C;S;V;F,16.5,0x00c000,-35.6,0.00e-0
1665254540,C;S;V;F,16.5,0x00c000,-35.6,0.00e-0
1665254541,C;S;V;F,16.4,0x00c000,-35.6,0.00e-0
1665254542,C;S;V;F,16.7,0x00c000,-35.5,
1665254543,,16.5,0x00c000,-35.5,0.00e-0
1665254544,C;S;V;F,,0x00c000,-35.6,0.00e-0
1665254545,C;S;V;F,16.4,0x00c000,-35.5,0.00e-0
1665254546,C;S;V;F,16.6,0x00c000,,0.00e-0
1665254547,C;S;V;F,16.6,0x00c000,-35.6,0.00e-0
1665254548,C;S;V;F,16.6,0x00c000,-35.4,0.00e-0
1665254549,C;S;V;F,16.8,0x00c000,-35.4,0.00e-0
1665254550,C;S;V;F,16.8,0x00c000,-35.2,0.00e-0
1665254551,C;S;V;F,17.0,0x00c000,-35.1,0.00e-0
1665254552,C;S;V;F,17.1,0x00c000,-35.2,0.00e-0
1665254553,C;S;V;F,17.1,0x00c000,-35.3,0.00e-0
1665254554,,16.8,0x00c000,-35.0,
1665254555,C;S;V;F,,,,0.00e-0
1665254557,C;S;V;F,16.9,0x00c000,-35.0,0.00e-0
1665254558,,17.0,0x00c000,-34.9,
1665254559,C;S;V;F,17.1,0x00c000,-34.7,0.00e-0
1665254560,C;S;V;F,17.2,0x00c000,-34.8,0.00e-0
1665254561,C;S;V;F,17.4,0x00c000,-34.6,0.00e-0
1665254562,C;S;V;F,,0x00c000,-34.7,0.00e-0
1665254563,C;S;V;F,17.4,0x00c000,,0.00e-0
1665254564,C;S;V;F,17.3,0x00c000,-34.8,0.00e-0
1665254565,C;S;V;F,17.4,0x00c000,-34.8,0.00e-0
1665254566,C;S;V;F,17.5,0x00c000,-34.7,0.00e-0
1665254567,C;S;V;F,17.3,0x00c000,-34.6,0.00e-0
1665254568,C;S;V;F,17.2,0x00c000,-34.5,0.00e-0
1665254569,C;S;V;F,17.5,0x00c000,-34.5,0.00e-0
1665254570,C;S;V;F,17.4,0x00c000,-34.8,0.00e-0
1665254571,C;S;V;F,17.3,0x00c000,-34.8,0.00e-0
1665254572,C;S;V;F,17.4,0x00c000,-34.6,0.00e-0
1665254573,C;S;V;F,17.5,0x00c000,-34.5,
1665254574,,17.3,0x00c000,-34.6,0.00e-0
1665254575,C;S;V;F,17.6,0x00c000,-34.8,0.00e-0
1665254576,C;S;V;F,17.2,0x00c000,-34.6,0.00e-0
1665254577,C;S;V;F,,0x00c000,-34.7,0.00e-0
1665254578,C;S;V;F,17.5,0x00c000,,0.00e-0
1665254579,C;S;V;F,17.3,0x00c000,-34.7,0.00e-0
1665254580,C;S;V;F,17.3,0x00c000,-34.7,0.00e-0
1665254581,C;S;V;F,17.1,0x00c000,-34.8,0.00e-0
1665254582,C;S;V;F,17.2,0x00c000,-34.8,0.00e-0
1665254586,C;S;V;F,17.3,0x00c000,-34.7,0.00e-0
1665254587,C;S;V;F,17.3,0x00c000,-34.8,0.00e-0
1665254588,C;S;V;F,17.6,0x00c000,-34.8,
1665254589,,17.3,0x00c000,-34.8,0.00e-0
1665254590,C;S;V;F,17.3,0x00c000,-34.5,0.00e-0
1665254591,C;S;V;F,17.4,0x00c000,-34.4,0.00e-0
1665254592,C;S;V;F,,0x00c000,-34.5,0.00e-0
1665254593,C;S;V;F,17.5,0x00c000,,0.00e-0
1665254594,C;S;V;F,17.5,0x00c000,-34.4,0.00e-0
1665254595,C;S;V;F,17.4,0x00c000,-34.6,0.00e-0
1665254596,C;S;V;F,17.3,0x00c000,-34.6,0.00e-0
1665254597,C;S;V;F,17.5,0x00c000,-34.3,0.00e-0
1665254598,C;S;V;F,17.8,0x00c000,-34.2,
1665254599,,17.7,0x00c000,-34.2,0.00e-0
1665254600,C;S;V;F,,0x00c000,-34.4,0.00e-0
1665254601,C;S;V;F,17.6,0x00c000,,0.00e-0
1665254602,C;S;V;F,17.7,0x00c000,-34.3,0.00e-0
1665254603,C;S;V;F,17.7,0x00c000,-34.2,0.00e-0
1665254604,C;S;V;F,17.8,0x00c000,-34.4,
1665254605,,17.6,0x00c000,-34.5,0.00e-0
1665254606,C;S;V;F,17.5,0x00c000,-34.7,0.00e-0
1665254607,C;S;V;F,17.5,0x00c000,-34.6,0.00e-0
1665254608,C;S;V;F,,0x00c000,-34.7,0.00e-0
1665254609,C;S;V;F,17.4,0x00c000,,0.00e-0
1665254610,C;S;V;F,17.6,0x00c000,-34.6,0.00e-0
1665254611,C;S;V;F,17.4,0x00c000,-34.6,0.00e-0
1665254612,C;S;V;F,17.3,0x00c000,-34.8,0.00e-0
1665254613,C;S;V;F,17.4,0x00c000,-34.8,0.00e-0
1665254614,C;S;V;F,17.4,0x00c000,-34.8,0.00e-0
1665254615,C;S;V;F,17.1,0x00c000,-34.8,0.00e-0
1665254616,C;S;V;F,17.2,0x00c000,-35.1,
1665254617,,16.9,0x00c000,-35.1,0.00e-0
1665254618,C;S;V;F,,0x00c000,,0.00e-0
1665254620,C;S;V;F,17.2,0x00c000,-35.2,0.00e-0
1665254621,C;S;V;F,16.8,0x00c000,-35.5,0.00e-0
1665254622,,16.8,0x00c000,-35.5,
1665254623,C;S;V;F,,0x00c000,-35.6,0.00e-0
1665254624,C;S;V;F,16.8,0x00c000,-35.6,0.00e-0
1665254625,C;S;V;F,16.7,0x00c000,,0.00e-0
1665254626,C;S;V;F,16.4,0x00c000,-35.9,0.00e-0
1665254627,C;S;V;F,16.5,0x00c000,-36.0,0.00e-0
1665254628,C;S;V;F,16.4,0x00c000,-36.0,0.00e-0
1665254629,C;S;V;F,16.6,0x00c000,-36.2,0.00e-0
1665254630,C;S;V;F,16.0,0x00c000,-36.3,0.00e-0
1665254631,C;S;V;F,16.1,0x00c000,-36.2,0.00e-0
1665254632,C;S;V;F,16.0,0x00c000,-36.5,0.00e-0
1665254633,C;S;V;F,15.9,0x00c000,-36.4,0.00e-0
1665254634,,16.0,0x00c000,-36.6,
1665254635,C;S;V;F,15.7,0x00c000,-36.9,0.00e-0
1665254636,C;S;V;F,,0x00c000,-37.2,0.00e-0
1665254637,C;S;V;F,15.6,0x00c000,-37.4,0.00e-0
1665254638,C;S;V;F,15.3,0x00c000,,0.00e-0
1665254639,C;S;V;F,15.1,0x00c000,-37.7,0.00e-0
1665254640,C;S;V;F,14.7,0x00c000,-37.9,0.00e-0
1665254641,C;S;V;F,14.6,0x00c000,-38.1,
1665254642,,14.4,0x00c000,-38.5,0.00e-0
1665254643,C;S;V;F,14.0,0x00c000,-38.5,0.00e-0
1665254644,C;S;V;F,,0x00c000,-38.7,0.00e-0
1665254645,C;S;V;F,14.2,0x00c000,-38.7,0.00e-0
1665254646,C;S;V;F,14.3,0x00c000,-38.6,0.00e-0
1665254647,C;S;V;F,14.4,0x00c000,,0.00e-0
1665254648,C;S;V;F,14.4,0x00c000,-38.5,0.00e-0
1665254649,C;S;V;F,14.6,0x00c000,-38.2,0.00e-0
1665254650,C;S;V;F,14.6,0x00c000,-38.1,0.00e-0
1665254651,C;S;V;F,14.8,0x00c000,-37.9,0.00e-0
1665254652,C;S;V;F,15.1,0x00c000,-37.9,0.00e-0
1665254653,C;S;V;F,15.2,0x00c000,-37.5,0.00e-0
1665254654,C;S;V;F,15.5,0x00c000,-37.5,0.00e-0
1665254655,C;S;V;F,15.7,0x00c000,-37.1,0.00e-0
1665254656,,16.1,0x00c000,-36.5,
1665254657,C;S;V;F,16.2,0x00c000,-36.4,0.00e-0
1665254658,C;S;V;F,,0x00c000,-36.0,0.00e-0
1665254659,C;S;V;F,16.3,0x00c000,-35.5,0.00e-0
1665254660,C;S;V;F,16.6,0x00c000,,0.00e-0
1665254661,C;S;V;F,16.7,0x00c000,-35.5,0.00e-0
1665254662,C;S;V;F,17.2,0x00c000,-35.1,0.00e-0
1665254663,C;S;V;F,17.4,0x00c000,-34.8,0.00e-0
1665254664,C;S;V;F,17.6,0x00c000,-34.7,0.00e-0
1665254665,C;S;V;F,18.0,0x00c000,-34.3,0.00e-0
1665254666,C;S;V;F,17.9,0x00c000,-34.1,
1665254667,,18.0,0x00c000,-34.0,0.00e-0
1665254668,C;S;V;F,18.1,0x00c000,-33.9,0.00e-0
1665254669,C;S;V;F,,0x00c000,-33.9,0.00e-0
1665254670,C;S;V;F,18.1,0x00c000,,0.00e-0
1665254671,C;S;V;F,18.2,0x00c000,-34.0,0.00e-0
1665254672,C;S;V;F,18.0,0x00c000,-33.9,0.00e-0
1665254673,C;S;V;F,17.9,0x00c000,-34.0,0.00e-0
1665254674,C;S;V;F,18.1,0x00c000,-33.9,0.00e-0
1665254675,C;S;V;F,17.9,0x00c000,-34.2,0.00e-0
1665254676,C;S;V;F,17.7,0x00c000,-34.3,0.00e-0
1665254677,C;S;V;F,17.7,0x00c000,-34.4,0.00e-0
1665254678,C;S;V;F,17.6,0x00c000,-34.7,
1665254679,,17.4,0x00c000,-34.8,0.00e-0
1665254680,C;S;V;F,17.3,0x00c000,-35.2,0.00e-0
1665254681,C;S;V;F,,0x00c000,,0.00e-0
1665254682,,,0x00c000,-35.3,
1665254683,C;S;V;F,17.1,0x00c000,-35.5,0.00e-0
1665254684,C;S;V;F,16.8,0x00c000,,0.00e-0
1665254685,C;S;V;F,17.0,0x00c000,-35.5,0.00e-0
1665254686,C;S;V;F,17.0,0x00c000,-35.3,0.00e-0
1665254687,C;S;V;F,16.9,0x00c000,-35.6,0.00e-0
1665254688,C;S;V;F,17.0,0x00c000,-35.5,0.00e-0
1665254689,C;S;V;F,17.1,0x00c000,-35.5,0.00e-0
1665254690,C;S;V;F,17.1,0x00c000,-35.2,0.00e-0
1665254691,C;S;V;F,17.0,0x00c000,-35.5,0.00e-0
1665254692,C;S;V;F,16.9,0x00c000,-35.7,0.00e-0
1665254693,C;S;V;F,16.8,0x00c000,-35.9,
1665254694,,16.5,0x00c000,-36.3,0.00e-0
1665254695,C;S;V;F,,0x00c000,-36.4,0.00e-0
1665254696,C;S;V;F,16.3,0x00c000,,0.00e-0
1665254697,C;S;V;F,15.8,0x00c000,-36.5,0.00e-0
1665254698,C;S;V;F,15.4,0x00c000,-37.0,0.00e-0
1665254699,C;S;V;F,15.4,0x00c000,-37.1,0.00e-0
1665254700,C;S;V;F,15.2,0x00c000,-37.5,0.00e-0
1665254701,C;S;V;F,14.9,0x00c000,-37.9,0.00e-0
1665254702,C;S;V;F,14.5,0x00c000,-38.4,0.00e-0
1665254703,C;S;V;F,14.0,0x00c000,-38.9,
1665254704,C;S;V;F,13.6,0x00c000,-39.0,0.00e-0
1665254705,,13.7,0x00c000,-39.2,0.00e-0
1665254706,C;S;V;F,13.5,0x00c000,-39.2,0.00e-0
1665254707,C;S;V;F,14.0,0x00c000,-38.5,0.00e-0
1665254708,C;S;V;F,,0x00c000,-38.1,0.00e-0
1665254709,C;S;V;F,14.5,0x00c000,,0.00e-0
1665254710,C;S;V;F,14.8,0x00c000,-37.6,0.00e-0
1665254711,C;S;V;F,15.5,0x00c000,-37.1,0.00e-0
1665254712,C;S;V;F,15.6,0x00c000,-36.5,0.00e-0
1665254713,C;S;V;F,16.3,0x00c000,-36.2,0.00e-0
1665254714,C;S;V;F,16.6,0x00c000,-35.1,0.00e-0
1665254715,C;S;V;F,17.4,0x00c000,-34.5,0.00e-0
1665254716,C;S;V;F,17.6,0x00c000,-34.1,0.00e-0
1665254717,C;S;V;F,17.9,0x00c000,-33.5,0.00e-0
1665254718,C;S;V;F,18.4,0x00c000,-33.0,
1665254719,,18.3,0x00c000,-33.0,0.00e-0
1665254720,C;S;V;F,18.3,0x00c000,-32.9,0.00e-0
1665254721,C;S;V;F,18.6,0x00c000,-33.1,0.00e-0
1665254722,C;S;V;F,,0x00c000,-33.3,0.00e-0
1665254723,C;S;V;F,18.5,0x00c000,-33.3,0.00e-0
1665254724,C;S;V;F,18.5,0x00c000,,0.00e-0
1665254725,C;S;V;F,18.3,0x00c000,-33.3,0.00e-0
1665254726,C;S;V;F,18.0,0x00c000,-33.5,0.00e-0
1665254727,C;S;V;F,18.1,0x00c000,-33.8,0.00e-0
1665254728,C;S;V;F,18.1,0x00c000,-34.5,0.00e-0
1665254729,C;S;V;F,17.4,0x00c000,-35.4,0.00e-0
1665254730,C;S;V;F,16.7,0x00c000,-36.1,0.00e-0
1665254731,C;S;V;F,15.9,0x00c000,-37.5,0.00e-0
1665254732,C;S;V;F,14.9,0x00c000,-38.5,0.00e-0
1665254733,C;S;V;F,13.2,0x00c000,-39.4,0.00e-0
1665254734,,13.1,0x00c000,-39.7,
1665254735,C;S;V;F,12.8,0x00c000,-40.2,0.00e-0
1665254736,C;S;V;F,13.4,0x00c000,-39.6,1.51e-7
1665254737,C;S;V;F,14.2,0x00c000,-38.7,1.51e-7
1665254738,C;S;V;F,,0x00c000,-37.9,0.00e-0
1665254739,C;S;V;F,15.2,0x00c000,,0.00e-0
1665254740,C;S;V;F,16.0,0x00c000,-37.0,0.00e-0
1665254741,C;S;V;F,16.8,0x00c000,-35.7,0.00e-0
1665254742,C;S;V;F,16.9,0x00c000,-35.3,0.00e-0
1665254743,C;S;V;F,17.5,0x00c000,-34.8,0.00e-0
1665254745,C;S;V;F,17.7,0x00c000,-34.4,0.00e-0
1665254746,,17.8,0x00c000,-34.3,
1665254747,C;S;V;F,18.0,0x00c000,-33.6,0.00e-0
1665254748,C;S;V;F,,,,0.00e-0
1665254749,C;S;V;F,18.1,0x00c000,-33.6,0.00e-0
1665254750,C;S;V;F,18.1,0x00c000,-33.8,0.00e-0
1665254751,,17.7,0x00c000,-35.3,
1665254752,C;S;V;F,,0x00c000,-35.6,0.00e-0
1665254753,C;S;V;F,16.5,0x00c000,,0.00e-0
1665254754,C;S;V;F,16.5,0x00c000,-36.1,0.00e-0
1665254755,C;S;V;F,16.1,0x00c000,-36.5,0.00e-0
1665254756,C;S;V;F,16.2,0x00c000,-36.3,0.00e-0
1665254757,C;S;V;F,16.6,0x00c000,-35.7,0.00e-0
1665254758,,16.0,0x00c000,-36.4,
1665254759,C;S;V;F,15.8,0x00c000,-36.4,0.00e-0
1665254760,C;S;V;F,16.0,0x00c000,-36.4,0.00e-0
1665254761,C;S;V;F,15.7,0x00c000,-37.0,0.00e-0
1665254762,C;S;V;F,,0x00c000,-36.3,0.00e-0
1665254763,C;S;V;F,15.6,0x00c000,-36.1,0.00e-0
1665254764,C;S;V;F,16.3,0x00c000,,0.00e-0
1665254765,C;S;V;F,16.6,0x00c000,-35.9,0.00e-0
1665254766,C;S;V;F,16.4,0x00c000,-35.9,0.00e-0
1665254767,C;S;V;F,16.4,0x00c000,-35.6,0.00e-0
1665254768,C;S;V;F,16.9,0x00c000,-35.4,0.00e-0
1665254769,C;S;V;F,16.2,0x00c000,-36.4,0.00e-0
1665254770,C;S;V;F,15.6,0x00c000,-36.6,0.00e-0
1665254771,C;S;V;F,15.1,0x00c000,-37.4,
1665254772,,15.2,0x00c000,-37.5,0.00e-0
1665254773,C;S;V;F,16.0,0x00c000,-36.1,0.00e-0
1665254774,C;S;V;F,,0x00c000,-35.7,0.00e-0
1665254775,C;S;V;F,16.4,0x00c000,-35.7,0.00e-0
1665254776,C;S;V;F,16.7,0x00c000,,0.00e-0
1665254777,C;S;V;F,16.2,0x00c000,-36.5,0.00e-0
1665254778,C;S;V;F,15.6,0x00c000,-36.6,0.00e-0
1665254779,C;S;V;F,15.6,0x00c000,-37.6,0.00e-0
1665254780,C;S;V;F,15.0,0x00c000,-37.7,0.00e-0
1665254781,C;S;V;F,16.2,0x00c000,-36.5,0.00e-0
1665254782,C;S;V;F,17.1,0x00c000,-34.8,0.00e-0
1665254783,,17.9,0x00c000,-34.1,
1665254784,C;S;V;F,17.9,0x00c000,-34.6,0.00e-0
1665254785,C;S;V;F,17.1,0x00c000,-35.7,0.00e-0
1665254786,C;S;V;F,,0x00c000,-36.5,0.00e-0
1665254787,C;S;V;F,16.2,0x00c000,,0.00e-0
1665254788,C;S;V;F,16.2,0x00c000,-36.5,0.00e-0
1665254789,C;S;V;F,16.1,0x00c000,-36.1,0.00e-0
1665254790,C;S;V;F,16.7,0x00c000,-35.3,0.00e-0
1665254791,C;S;V;F,17.5,0x00c000,-34.0,0.00e-0
1665254792,,17.6,0x00c000,-33.3,
1665254793,C;S;V;F,17.9,0x00c000,-33.1,0.00e-0
1665254794,C;S;V;F,18.5,0x00c000,-32.7,0.00e-0
1665254795,C;S;V;F,,0x00c000,-32.4,0.00e-0
1665254796,C;S;V;F,18.3,0x00c000,,0.00e-0
1665254797,C;S;V;F,17.9,0x00c000,-33.6,0.00e-0
1665254798,C;S;V;F,17.8,0x00c000,-34.3,0.00e-0
1665254799,C;S;V;F,17.2,0x00c000,-34.8,0.00e-0
1665254800,C;S;V;F,17.0,0x00c000,-35.5,0.00e-0
1665254801,C;S;V;F,16.7,0x00c000,-35.8,0.00e-0
1665254802,C;S;V;F,16.6,0x00c000,-35.8,0.00e-0
1665254803,C;S;V;F,16.8,0x00c000,-35.6,0.00e-0
1665254804,C;S;V;F,17.2,0x00c000,-35.3,
1665254805,,17.4,0x00c000,-34.9,0.00e-0
1665254806,C;S;V;F,,,,0.00e-0
1665254808,C;S;V;F,17.6,0x00c000,-34.2,0.00e-0
1665254809,C;S;V;F,17.1,0x00c000,-35.3,
1665254810,,16.4,0x00c000,-36.3,0.00e-0
1665254811,C;S;V;F,15.8,0x00c000,-36.9,0.00e-0
1665254812,C;S;V;F,15.2,0x00c000,-37.2,0.00e-0
1665254813,C;S;V;F,,0x00c000,-36.5,0.00e-0
1665254814,C;S;V;F,15.8,0x00c000,,0.00e-0
1665254815,C;S;V;F,16.6,0x00c000,-35.6,0.00e-0
1665254816,C;S;V;F,16.6,0x00c000,-34.8,0.00e-0
1665254817,C;S;V;F,17.3,0x00c000,-35.1,0.00e-0
1665254818,C;S;V;F,17.2,0x00c000,-34.8,0.00e-0
1665254819,C;S;V;F,17.6,0x00c000,-34.0,0.00e-0
1665254820,,17.9,0x00c000,-33.9,
1665254821,C;S;V;F,17.6,0x00c000,-34.3,0.00e-0
1665254822,C;S;V;F,17.0,0x00c000,-34.8,0.00e-0
1665254823,C;S;V;F,15.7,0x00c000,-36.5,0.00e-0
1665254824,C;S;V;F,,0x00c000,-37.0,0.00e-0
1665254825,C;S;V;F,15.4,0x00c000,-36.4,0.00e-0
1665254826,C;S;V;F,15.8,0x00c000,,0.00e-0
1665254827,C;S;V;F,15.7,0x00c000,-36.7,0.00e-0
1665254828,C;S;V;F,15.7,0x00c000,-37.2,0.00e-0
1665254829,C;S;V;F,14.8,0x00c000,-39.0,0.00e-0
1665254830,C;S;V;F,13.3,0x00c000,-39.5,0.00e-0
1665254831,C;S;V;F,13.7,0x00c000,-38.5,0.00e-0
1665254832,C;S;V;F,14.7,0x00c000,-37.1,0.00e-0
1665254833,,16.5,0x00c000,-36.3,
1665254834,C;S;V;F,16.8,0x00c000,-35.6,0.00e-0
1665254835,C;S;V;F,17.1,0x00c000,-35.4,0.00e-0
1665254836,C;S;V;F,,0x00c000,-35.3,0.00e-0
1665254837,C;S;V;F,17.0,0x00c000,-35.6,0.00e-0
1665254838,C;S;V;F,16.9,0x00c000,,0.00e-0
1665254839,C;S;V;F,16.1,0x00c000,-36.5,0.00e-0
1665254840,C;S;V;F,15.6,0x00c000,-37.2,0.00e-0
1665254841,C;S;V;F,15.6,0x00c000,-37.1,0.00e-0
1665254842,C;S;V;F,15.5,0x00c000,-37.1,0.00e-0
1665254843,C;S;V;F,15.0,0x00c000,-38.1,0.00e-0
1665254844,C;S;V;F,14.5,0x00c000,-38.7,0.00e-0
1665254845,C;S;V;F,13.7,0x00c000,-39.4,0.00e-0
1665254846,C;S;V;F,13.2,0x00c000,-38.7,
1665254847,,14.7,0x00c000,-37.7,0.00e-0
1665254848,C;S;V;F,15.6,0x00c000,-36.9,0.00e-0
1665254849,C;S;V;F,16.4,0x00c000,-36.5,0.00e-0
1665254850,C;S;V;F,,0x00c000,,0.00e-0
1665254851,C;S;V;F,16.8,0x00c000,-35.6,0.00e-0
1665254852,C;S;V;F,17.6,0x00c000,-34.2,0.00e-0
1665254853,C;S;V;F,18.2,0x00c000,-33.6,0.00e-0
1665254854,C;S;V;F,18.8,0x00c000,-33.0,0.00e-0
1665254855,C;S;V;F,18.6,0x00c000,-32.9,0.00e-0
1665254856,C;S;V;F,18.8,0x00c000,-32.6,
1665254857,,18.8,0x00c000,-32.4,0.00e-0
1665254858,C;S;V;F,18.8,0x00c000,-32.4,0.00e-0
1665254859,C;S;V;F,,0x00c000,-32.9,0.00e-0
1665254860,C;S;V;F,18.3,0x00c000,-35.0,0.00e-0
1665254861,C;S;V;F,17.5,0x00c000,,0.00e-0
1665254862,C;S;V;F,16.2,0x00c000,-36.5,0.00e-0
1665254863,C;S;V;F,16.0,0x00c000,-36.8,0.00e-0
1665254864,C;S;V;F,16.1,0x00c000,-36.6,0.00e-0
1665254865,C;S;V;F,15.7,0x00c000,-36.8,0.00e-0
1665254866,C;S;V;F,15.5,0x00c000,-37.2,
1665254867,,14.9,0x00c000,-37.9,0.00e-0
1665254868,C;S;V;F,14.1,0x00c000,-38.9,0.00e-0
1665254869,C;S;V;F,,,,0.00e-0
1665254871,C;S;V;F,14.8,0x00c000,-37.2,0.00e-0
1665254872,C;S;V;F,16.6,0x00c000,-35.4,0.00e-0
1665254873,C;S;V;F,17.4,0x00c000,-34.7,0.00e-0
1665254874,C;S;V;F,17.7,0x00c000,-34.7,0.00e-0
1665254875,C;S;V;F,17.8,0x00c000,-34.7,0.00e-0
1665254876,C;S;V;F,17.6,0x00c000,-34.4,0.00e-0
1665254877,C;S;V;F,17.8,0x00c000,-34.4,0.00e-0
1665254878,,17.7,0x00c000,-34.4,
1665254879,C;S;V;F,18.0,0x00c000,-34.0,0.00e-0
1665254880,C;S;V;F,18.3,0x00c000,-33.5,0.00e-0
1665254881,C;S;V;F,,0x00c000,-33.4,0.00e-0
1665254882,C;S;V;F,18.2,0x00c000,-34.5,0.00e-0
1665254883,C;S;V;F,17.8,0x00c000,,0.00e-0
1665254884,C;S;V;F,16.8,0x00c000,-36.2,0.00e-0
1665254885,C;S;V;F,16.3,0x00c000,-36.7,0.00e-0
1665254889,C;S;V;F,15.9,0x00c000,-37.1,0.00e-0
1665254890,C;S;V;F,15.5,0x00c000,-37.1,0.00e-0
1665254891,C;S;V;F,15.5,0x00c000,-37.5,0.00e-0
1665254892,C;S;V;F,15.3,0x00c000,-37.8,0.00e-0
1665254893,C;S;V;F,14.2,0x00c000,-39.8,0.00e-0
1665254894,C;S;V;F,12.3,0x00c000,-40.4,9.09e-7
1665254895,C;S;V;F,12.4,0x00c000,-39.7,1.51e-6
1665254896,C;S;V;F,15.6,0x00c000,-37.4,
1665254897,,16.7,0x00c000,-35.8,6.06e-7
1665254898,C;S;V;F,17.2,0x00c000,-34.8,0.00e-0
1665254899,C;S;V;F,16.9,0x00c000,-35.2,0.00e-0
1665254900,C;S;V;F,,0x00c000,-36.5,0.00e-0
1665254901,C;S;V;F,16.4,0x00c000,,0.00e-0
1665254902,C;S;V;F,15.4,0x00c000,-37.4,0.00e-0
1665254903,C;S;V;F,14.7,0x00c000,-37.7,0.00e-0
1665254904,C;S;V;F,14.5,0x00c000,-38.5,0.00e-0
1665254905,C;S;V;F,14.3,0x00c000,-38.3,0.00e-0
1665254906,C;S;V;F,14.8,0x00c000,-37.6,0.00e-0
1665254907,C;S;V;F,15.9,0x00c000,-36.1,0.00e-0
1665254908,C;S;V;F,16.5,0x00c000,-34.8,
1665254909,C;S;V;F,17.4,0x00c000,-34.4,0.00e-0
1665254910,,17.7,0x00c000,-34.4,0.00e-0
1665254911,C;S;V;F,16.7,0x00c000,-34.8,0.00e-0
1665254912,C;S;V;F,,0x00c000,-35.5,0.00e-0
1665254913,C;S;V;F,16.7,0x00c000,-36.2,0.00e-0
1665254914,C;S;V;F,16.5,0x00c000,,0.00e-0
1665254915,C;S;V;F,15.8,0x00c000,-37.7,0.00e-0
1665254916,C;S;V;F,14.1,0x00c000,-38.8,0.00e-0
1665254917,C;S;V;F,14.1,0x00c000,-38.7,0.00e-0
1665254918,C;S;V;F,14.1,0x00c000,-38.6,0.00e-0
1665254919,C;S;V;F,15.0,0x00c000,-37.7,0.00e-0
1665254920,C;S;V;F,15.3,0x00c000,-36.9,
1665254921,,16.0,0x00c000,-36.4,0.00e-0
1665254922,C;S;V;F,,0x00c000,-36.4,0.00e-0
1665254923,C;S;V;F,16.0,0x00c000,,0.00e-0
1665254924,C;S;V;F,15.7,0x00c000,-36.8,0.00e-0
1665254925,C;S;V;F,15.1,0x00c000,-37.7,0.00e-0
1665254926,C;S;V;F,14.3,0x00c000,-38.2,0.00e-0
1665254927,C;S;V;F,13.5,0x00c000,-39.3,0.00e-0
1665254928,,12.7,0x00c000,-40.2,
1665254929,C;S;V;F,12.1,0x00c000,-40.7,6.06e-7
1665254930,C;S;V;F,12.0,0x00c000,-40.6,2.42e-6
1665254931,C;S;V;F,,0x00c000,,3.32e-6
1665254933,,12.9,0x00c000,-39.6,
1665254934,C;S;V;F,13.4,0x00c000,-39.3,6.06e-7
1665254935,C;S;V;F,,0x00c000,-38.6,1.51e-7
1665254936,C;S;V;F,14.0,0x00c000,,0.00e-0
1665254937,C;S;V;F,14.4,0x00c000,-38.2,0.00e-0
1665254938,C;S;V;F,14.6,0x00c000,-38.0,0.00e-0
1665254939,C;S;V;F,14.1,0x00c000,-38.2,0.00e-0
1665254940,C;S;V;F,14.2,0x00c000,-38.3,0.00e-0
1665254941,C;S;V;F,14.2,0x00c000,-38.5,0.00e-0
1665254942,C;S;V;F,13.8,0x00c000,-39.0,
1665254943,,13.3,0x00c000,-39.5,0.00e-0
1665254944,C;S;V;F,12.9,0x00c000,-40.0,0.00e-0
1665254945,C;S;V;F,12.2,0x00c000,-40.7,1.51e-7
1665254946,C;S;V;F,,0x00c000,-41.3,1.51e-6
1665254947,C;S;V;F,11.9,0x00c000,-41.7,6.80e-6
1665254948,C;S;V;F,11.3,0x00c000,,1.97e-5
1665254949,C;S;V;F,10.4,0x00c000,-41.7,4.37e-5
1665254950,C;S;V;F,10.4,0x00c000,-41.9,5.64e-5
1665254951,C;S;V;F,10.8,0x00c000,-41.5,4.39e-5
1665254952,C;S;V;F,11.1,0x00c000,-40.9,2.67e-5
1665254953,C;S;V;F,12.3,0x00c000,-40.4,1.16e-5
1665254954,C;S;V;F,13.1,0x00c000,-39.6,1.66e-6
1665254955,C;S;V;F,13.8,0x00c000,-39.0,0.00e-0
1665254956,C;S;V;F,13.8,0x00c000,-38.5,0.00e-0
1665254957,C;S;V;F,14.7,0x00c000,-38.1,
1665254958,,14.8,0x00c000,-37.9,0.00e-0
1665254959,C;S;V;F,14.5,0x00c000,-38.0,0.00e-0
1665254960,C;S;V;F,,0x00c000,-38.3,0.00e-0
1665254961,C;S;V;F,14.5,0x00c000,-38.4,0.00e-0
1665254962,C;S;V;F,14.4,0x00c000,,0.00e-0
1665254963,C;S;V;F,13.6,0x00c000,-39.0,0.00e-0
1665254964,C;S;V;F,13.3,0x00c000,-39.4,0.00e-0
1665254965,C;S;V;F,12.7,0x00c000,-39.8,4.54e-7
1665254966,C;S;V;F,12.6,0x00c000,-40.0,9.09e-7
1665254967,C;S;V;F,12.3,0x00c000,-40.2,
1665254968,,12.4,0x00c000,-40.2,1.05e-6
1665254969,C;S;V;F,12.6,0x00c000,-39.9,1.51e-6
1665254970,C;S;V;F,,0x00c000,-39.6,1.21e-6
1665254971,C;S;V;F,13.1,0x00c000,,4.54e-7
1665254972,C;S;V;F,13.2,0x00c000,-39.5,0.00e-0
1665254973,C;S;V;F,13.7,0x00c000,-38.9,0.00e-0
1665254974,C;S;V;F,13.8,0x00c000,-38.8,0.00e-0
1665254975,C;S;V;F,14.2,0x00c000,-38.5,0.00e-0
1665254976,C;S;V;F,14.7,0x00c000,-37.9,0.00e-0
1665254977,C;S;V;F,14.9,0x00c000,-37.5,0.00e-0
1665254978,C;S;V;F,15.5,0x00c000,-37.0,0.00e-0
1665254979,C;S;V;F,15.5,0x00c000,-36.8,